Regional Weather Roundup
Issued by NWS Charleston, SC

Current Version | Previous Version | Graphics & Text | Print | Product List | Glossary On
Versions: 1 2 3 4 5 6 7 8 9 10 11 12 13 14 15 16 17 18 19 20 21 22 23 24 25 26 27 28 29 30 31 32 33 34 35 36 37 38 39 40 41 42 43 44 45 46 47 48 49 50
000 ASUS42 KCHS 031227 RWRCHS REGIONAL WEATHER ROUNDUP NATIONAL WEATHER SERVICE CHARLESTON SC 800 AM EDT FRI JUL 03 2015 NOTE: "FAIR" INDICATES FEW OR NO CLOUDS BELOW 12,000 FEET WITH NO SIGNIFICANT WEATHER AND/OR OBSTRUCTIONS TO VISIBILITY. NOT ALL STATIONS ARE QUALITY CONTROLLED BY THE NATIONAL WEATHER SERVICE. USE DATA WITH CAUTION...ESPECIALLY DEWPOINT OBSERVATIONS. SCZ027-030-031-034>040-042>050-031300- ...SOUTHEAST SOUTH CAROLINA... CITY SKY/WX TMP DP RH WIND PRES REMARKS N CHARLESTON PTSUNNY 73 69 87 SW12 30.02S 6HR MIN TEMP: 71; 6HR MAX TEMP: 73; 6HR PCP: TRACE; WATERFRONT PAR N/A 74 71 90 SW6 30.00R MOUNT PLEASANT FAIR 75 72 88 SW10G17 30.03R JOHNS ISLAND LGT RAIN 73 72 94 SW6G13 30.04S PINOPOLIS NOT AVBL MONCKS CORNER LGT RAIN 73 70 88 SW8 30.02R SUMMERVILLE FAIR 72 72 100 CALM 30.03S BEAUFORT MCAS MOSUNNY 73 70 90 W7 30.05R 6HR MIN TEMP: 72; 6HR MAX TEMP: 73; BEAUFORT ARPT PTSUNNY 75 72 88 W8 30.05R HILTON HEAD IS MOSUNNY 75 72 88 SW9 30.05R WALTERBORO HVY RAIN 72 70 94 W7 30.06R ALLENDALE LGT RAIN 72 70 94 S3 30.02F ...SOUTHERN MIDLANDS AND PEE DEE... CITY SKY/WX TMP DP RH WIND PRES REMARKS GEORGETOWN NOT AVBL KINGSTREE NOT AVBL ORANGEBURG CLOUDY 73 69 87 SW15 30.01R 6HR MIN TEMP: 70; 6HR MAX TEMP: 73; BARNWELL LGT RAIN 72 70 94 SW7 30.02S AIKEN NOT AVBL MANNING CLOUDY 72 72 100 SW7 30.00R COLUMBIA PTSUNNY 75 69 81 S10 29.96R 6HR MIN TEMP: 71; 6HR MAX TEMP: 75; SUMTER CLOUDY 74 71 90 S12 29.96R 6HR MIN TEMP: 70; 6HR MAX TEMP: 74; FLORENCE CLOUDY 72 70 93 SW8 29.98R 6HR MIN TEMP: 70; 6HR MAX TEMP: 72; MYRTLE BEACH CLOUDY 73 68 83 W12 30.01R N MYRTLE BEACH CLOUDY 74 70 87 W8 29.99R 6HR MIN TEMP: 71; 6HR MAX TEMP: 74; $$ GAZ063-065-086>088-099>101-113>116-118-119-134>141-150-031300- ...SOUTHEAST GEORGIA... CITY SKY/WX TMP DP RH WIND PRES REMARKS SAVANNAH ARPT MOSUNNY 73 69 87 SW10 30.05R 6HR MIN TEMP: 71; 6HR MAX TEMP: 73; HUNTER AAF MOSUNNY 75 71 86 SW9 30.03R 6HR MIN TEMP: 72; 6HR MAX TEMP: 75; FORT STEWART SUNNY 73 69 88 SW9 30.03S 6HR MIN TEMP: 71; 6HR MAX TEMP: 73; STATESBORO NOT AVBL SYLVANIA CLOUDY 74 73 97 SW5 30.06R CLAXTON FAIR 73 72 94 SW6 30.05R ...CSRA...CENTRAL AND FAR SOUTHEAST GEORGIA... CITY SKY/WX TMP DP RH WIND PRES REMARKS THOMSON CLOUDY 74 72 93 S6 30.03R AUGUSTA-BUSH HVY RAIN 72 70 93 S14 29.99S FOG 6HR MIN TEMP: 71; 6HR MAX TEMP: 73; 6HR PCP: 0.17; AUGUSTA-DANIEL LGT RAIN 71 68 90 S10 30.00S SWAINSBORO CLOUDY N/A N/A N/A W6 30.04S VIDALIA PTSUNNY 73 72 94 W7 30.05R EASTMAN FAIR 76 76 100 W7 30.07S HAZLEHURST FAIR 77 75 94 SW6 30.05S ALMA PTSUNNY 73 71 93 SW5 30.07R 6HR MIN TEMP: 70; 6HR MAX TEMP: 73; WAYCROSS MOSUNNY 77 75 95 W7 30.08R JESUP FAIR 75 73 94 W5 30.07R BAXLEY FAIR 75 72 88 W6 30.07R BRUNSWICK SUNNY 75 72 88 W8 30.08R SAINT SIMONS SUNNY 75 71 87 SW9 30.07R 6HR MIN TEMP: 73; 6HR MAX TEMP: 75; $$ SCZ027-028-034-036>038-045-046-048>050-GAZ119-141-031300- ...LAKE AND SUPPLEMENTAL COASTAL OBSERVATIONS... STATION/POSITION TIME TEMP WIND PRES WAVE SWELL AIR SEA DIR/SP/G HT/PER HT/PER/DIR (UTC) (F) (DEG/KT/KT) (MB) (FT/S) (FT/S/D) UPR LAKE MARION NOT AVBL WINYAH BAY 1100 73 230/ 9 1015.0R LAKE MURRAY 1100 75 220/ 11/ 14 1013.5S ACE BASIN NERRS NOT AVBL FORT PULASKI 1200 76 83 220/ 8/ 12 1017.9R SAPELO ISLAND 1200 76 240/ 12 1018.0S $$ ANZ835-935-AMZ111-154-330-350-352-354-370-450-454-472-031300- ...C-MAN AND BUOY OBSERVATIONS... STATION/POSITION TIME TEMP WIND PRES WAVE SWELL AIR SEA DIR/SP/G HT/PER HT/PER/DIR (UTC) (F) (DEG/KT/KT) (MB) (FT/S) (FT/S/D) BUOY 41004 1150 80 81 230/ 19/ 21 1015.8R 5/ 6 2/ 8 BUOY 41008 1150 78 78 250/ 14/ 16 1017.9R 3/ 8 2/110/ 8 FOLLY BEACH CMAN 1200 74 240/ 12/ 16 1017.1R CAPERS NEARSHORE 1108 81 250/ 19/ 25 1016.3R FRIPP NEARSHORE 1100 79 250/ 17/ 21 1016.4R STATION/POSITION TIME TEMP WIND PRES WAVE SWELL AIR SEA DIR/SP/G HT/PER HT/PER/DIR (UTC) (F) (DEG/KT/KT) (MB) (FT/S) (FT/S/D) 5E ST. MARYS GA 1121 76 N/A 2/ 8 FRYING PAN BUOY 1150 80 79 230/ 19/ 21 1015.9R 6/ 6 BUOY 41025 1150 78 83 270/ 16/ 17 1014.7R 6/ 8 3/210/ 8 CAPE LOOKOUT NC 1200 76 250/ 15/ 18 1015.2R BUOY 41002 1150 82 80 230/ 17/ 21 1018.1R 7/ 6 2/100/15 BUOY 41010 1120 83 84 200/ 10/ 12 1019.0R ST AUGUSTINE FL 1200 77 73 230/ 5/ 6 1019.7R $$

USA.gov is the U.S. government's official web portal to all federal, state and local government web resources and services.